TimeAKDT,TemperatureF,Dew PointF,Humidity,Sea Level PressureIn,VisibilityMPH,Wind Direction,Wind SpeedMPH,Gust SpeedMPH,PrecipitationIn,Events,Conditions,WindDirDegrees,DateUTC
12:24 AM,42.8,42.8,100,29.55,7.0,NE,24.2,-,N/A,,Scattered Clouds,50,2012-10-11 08:24:00
12:53 AM,43.0,42.1,97,29.50,8.0,ENE,24.2,-,N/A,,Clear,60,2012-10-11 08:53:00
1:13 AM,42.8,42.8,100,29.53,8.0,NE,23.0,-,N/A,,Clear,40,2012-10-11 09:13:00
1:53 AM,43.0,42.1,97,29.49,7.0,NE,24.2,-,N/A,,Clear,50,2012-10-11 09:53:00
2:05 AM,42.8,42.8,100,29.52,8.0,NE,23.0,-,N/A,,Clear,50,2012-10-11 10:05:00
2:53 AM,43.0,42.1,97,29.47,7.0,NE,23.0,-,N/A,,Clear,50,2012-10-11 10:53:00
3:53 AM,44.1,42.1,93,29.46,7.0,NE,26.5,-,N/A,,Clear,50,2012-10-11 11:53:00
4:53 AM,43.0,42.1,97,29.44,8.0,ENE,24.2,33.4,N/A,,Clear,60,2012-10-11 12:53:00
5:39 AM,42.8,42.8,100,29.46,8.0,ENE,26.5,33.4,N/A,,Partly Cloudy,60,2012-10-11 13:39:00
5:53 AM,43.0,42.1,97,29.42,8.0,ENE,27.6,34.5,N/A,,Scattered Clouds,60,2012-10-11 13:53:00
6:53 AM,43.0,42.1,97,29.42,9.0,ENE,23.0,33.4,N/A,,Partly Cloudy,60,2012-10-11 14:53:00
7:53 AM,43.0,42.1,97,29.41,8.0,ENE,27.6,-,N/A,,Overcast,60,2012-10-11 15:53:00
8:53 AM,44.1,42.1,93,29.39,9.0,ENE,27.6,35.7,N/A,,Clear,60,2012-10-11 16:53:00
9:53 AM,44.1,43.0,96,29.39,8.0,ENE,29.9,39.1,N/A,,Overcast,70,2012-10-11 17:53:00
10:16 AM,44.6,42.8,93,29.43,7.0,ENE,27.6,39.1,N/A,,Overcast,70,2012-10-11 18:16:00
10:28 AM,44.6,42.8,93,29.42,7.0,ENE,29.9,35.7,N/A,,Overcast,60,2012-10-11 18:28:00
10:51 AM,44.6,42.8,93,29.43,7.0,ENE,29.9,35.7,N/A,,Mostly Cloudy,60,2012-10-11 18:51:00
10:53 AM,44.1,43.0,96,29.39,7.0,ENE,27.6,35.7,N/A,,Mostly Cloudy,60,2012-10-11 18:53:00
11:32 AM,44.6,42.8,93,29.43,7.0,ENE,25.3,34.5,N/A,,Mostly Cloudy,60,2012-10-11 19:32:00
12:29 PM,44.6,42.8,93,29.43,7.0,ENE,26.5,35.7,N/A,,Mostly Cloudy,60,2012-10-11 20:29:00
12:53 PM,45.0,43.0,93,29.40,7.0,ENE,29.9,35.7,N/A,,Mostly Cloudy,60,2012-10-11 20:53:00
1:01 PM,44.6,42.8,93,29.43,7.0,ENE,28.8,35.7,N/A,,Mostly Cloudy,60,2012-10-11 21:01:00
1:33 PM,44.6,42.8,93,29.43,7.0,ENE,27.6,35.7,N/A,,Scattered Clouds,60,2012-10-11 21:33:00
1:44 PM,44.6,42.8,93,29.43,7.0,ENE,29.9,39.1,N/A,,Mostly Cloudy,60,2012-10-11 21:44:00
1:53 PM,45.0,43.0,93,29.39,7.0,ENE,32.2,38.0,N/A,,Mostly Cloudy,60,2012-10-11 21:53:00
2:22 PM,46.4,44.6,93,29.42,9.0,ENE,27.6,38.0,N/A,,Overcast,60,2012-10-11 22:22:00
2:44 PM,46.4,42.8,87,29.42,8.0,NE,29.9,36.8,N/A,,Overcast,50,2012-10-11 22:44:00
2:53 PM,46.0,43.0,89,29.38,8.0,NE,28.8,34.5,N/A,,Overcast,50,2012-10-11 22:53:00
3:07 PM,46.4,44.6,93,29.41,8.0,NE,28.8,-,N/A,,Overcast,50,2012-10-11 23:07:00
3:39 PM,44.6,42.8,93,29.41,8.0,NE,31.1,-,N/A,,Overcast,50,2012-10-11 23:39:00
3:53 PM,44.1,42.1,93,29.38,7.0,ENE,28.8,35.7,N/A,,Overcast,60,2012-10-11 23:53:00
4:53 PM,44.1,42.1,93,29.36,8.0,NE,28.8,36.8,N/A,,Overcast,50,2012-10-12 00:53:00
5:53 PM,44.1,42.1,93,29.35,8.0,NE,28.8,38.0,N/A,,Overcast,50,2012-10-12 01:53:00
6:09 PM,44.6,42.8,93,29.38,8.0,NE,29.9,35.7,N/A,,Overcast,50,2012-10-12 02:09:00
6:53 PM,43.0,41.0,93,29.34,8.0,NE,31.1,35.7,N/A,,Overcast,40,2012-10-12 02:53:00
7:53 PM,43.0,41.0,93,29.35,8.0,NE,29.9,36.8,N/A,,Overcast,50,2012-10-12 03:53:00
8:53 PM,43.0,41.0,93,29.35,10.0,NE,27.6,-,N/A,,Overcast,50,2012-10-12 04:53:00
9:53 PM,42.1,41.0,96,29.35,10.0,NE,27.6,39.1,N/A,,Overcast,50,2012-10-12 05:53:00
10:53 PM,42.1,41.0,96,29.35,10.0,NE,29.9,36.8,N/A,,Overcast,50,2012-10-12 06:53:00
11:53 PM,42.1,41.0,96,29.35,10.0,NE,28.8,36.8,N/A,,Overcast,50,2012-10-12 07:53:00